• In Russia
  • List of Countries
  • For 7 days
  • Water Temperature
  • Satellite Maps
  • Weather Map
  • Weather Widgets
  • user-avatar
    Login

    Hourly Weather Daynova 2

    Today, 15 August, Wednesday

    Time Temperature Precipitation Wind Pressure Humidity
    00:00 +18°C° 0.1 mm 2 mps 744 mmHg 94%
    01:00 +18°C° 0.1 mm 2 mps 744 mmHg 94%
    02:00 +17°C° 0 mm 3 mps 745 mmHg 95%
    03:00 +17°C° 0 mm 2 mps 745 mmHg 95%
    04:00 +17°C° 0 mm 2 mps 745 mmHg 96%
    05:00 +16°C° 0 mm 2 mps 745 mmHg 96%
    06:00 +17°C° 0 mm 2 mps 745 mmHg 93%
    07:00 +18°C° 0 mm 3 mps 746 mmHg 90%
    08:00 +20°C° 0 mm 3 mps 746 mmHg 87%
    09:00 +21°C° 0.1 mm 3 mps 746 mmHg 81%
    10:00 +22°C° 0.1 mm 4 mps 746 mmHg 74%
    11:00 +23°C° 0.1 mm 4 mps 746 mmHg 68%
    12:00 +25°C° 0.3 mm 4 mps 746 mmHg 66%
    13:00 +25°C° 0.3 mm 4 mps 746 mmHg 65%
    14:00 +25°C° 0 mm 4 mps 747 mmHg 64%
    15:00 +25°C° 0.3 mm 4 mps 747 mmHg 66%
    16:00 +25°C° 0.3 mm 4 mps 747 mmHg 68%
    17:00 +25°C° 0.3 mm 3 mps 747 mmHg 69%
    18:00 +22°C° 0.2 mm 3 mps 747 mmHg 76%
    19:00 +21°C° 0.2 mm 3 mps 747 mmHg 82%
    20:00 +19°C° 0.2 mm 2 mps 748 mmHg 88%
    21:00 +18°C° 0 mm 2 mps 748 mmHg 90%
    22:00 +18°C° 0 mm 2 mps 748 mmHg 93%
    23:00 +17°C° 0 mm 3 mps 749 mmHg 95%

    Tomorrow, 16 August, Thursday

    Time Temperature Precipitation Wind Pressure Humidity
    00:00 +17°C° 0 mm 3 mps 749 mmHg 96%
    01:00 +16°C° 0 mm 3 mps 749 mmHg 97%
    02:00 +16°C° 0 mm 2 mps 749 mmHg 97%
    03:00 +15°C° 0 mm 2 mps 750 mmHg 98%
    04:00 +15°C° 0 mm 2 mps 750 mmHg 98%
    05:00 +15°C° 0 mm 2 mps 750 mmHg 98%
    06:00 +15°C° 0 mm 2 mps 750 mmHg 96%
    07:00 +16°C° 0 mm 2 mps 750 mmHg 93%
    08:00 +17°C° 0 mm 2 mps 751 mmHg 91%
    09:00 +18°C° 0 mm 2 mps 751 mmHg 87%
    10:00 +19°C° 0 mm 2 mps 751 mmHg 82%
    11:00 +20°C° 0 mm 2 mps 751 mmHg 78%
    12:00 +21°C° 0 mm 2 mps 751 mmHg 76%
    13:00 +21°C° 0 mm 2 mps 751 mmHg 74%
    14:00 +23°C° 0 mm 2 mps 751 mmHg 72%
    15:00 +23°C° 0 mm 1 mps 751 mmHg 70%
    16:00 +23°C° 0 mm 1 mps 751 mmHg 69%
    17:00 +23°C° 0 mm 1 mps 751 mmHg 68%
    18:00 +22°C° 0 mm 1 mps 751 mmHg 74%
    19:00 +20°C° 0 mm 1 mps 751 mmHg 79%
    20:00 +17°C° 0 mm 0 mps 751 mmHg 85%
    21:00 +16°C° 0 mm 0 mps 751 mmHg 87%
    22:00 +16°C° 0 mm 0 mps 752 mmHg 89%
    23:00 +15°C° 0 mm 0 mps 752 mmHg 90%

    Day after tomorrow, 17 August, Friday

    Time Temperature Precipitation Wind Pressure Humidity
    00:00 +15°C° 0 mm 0 mps 752 mmHg 91%
    01:00 +15°C° 0 mm 0 mps 752 mmHg 92%
    02:00 +14°C° 0 mm 0 mps 752 mmHg 92%
    03:00 +15°C° 0 mm 1 mps 752 mmHg 93%
    04:00 +15°C° 0 mm 1 mps 752 mmHg 94%
    05:00 +15°C° 0 mm 1 mps 752 mmHg 94%
    06:00 +16°C° 0 mm 1 mps 752 mmHg 90%
    07:00 +19°C° 0 mm 1 mps 752 mmHg 87%
    08:00 +20°C° 0 mm 1 mps 752 mmHg 83%
    09:00 +22°C° 0 mm 1 mps 752 mmHg 78%
    10:00 +23°C° 0 mm 2 mps 752 mmHg 74%
    11:00 +24°C° 0 mm 2 mps 752 mmHg 69%
    12:00 +25°C° 0.1 mm 2 mps 752 mmHg 67%
    13:00 +25°C° 0.1 mm 2 mps 751 mmHg 64%
    14:00 +26°C° 0.1 mm 2 mps 751 mmHg 62%
    15:00 +26°C° 0 mm 2 mps 751 mmHg 62%
    16:00 +26°C° 0 mm 1 mps 751 mmHg 62%
    17:00 +26°C° 0 mm 1 mps 750 mmHg 63%
    18:00 +24°C° 0 mm 1 mps 750 mmHg 70%
    19:00 +23°C° 0 mm 1 mps 750 mmHg 76%
    20:00 +21°C° 0 mm 1 mps 751 mmHg 83%
    21:00 +20°C° 0 mm 1 mps 751 mmHg 85%
    22:00 +20°C° 0 mm 1 mps 751 mmHg 87%
    23:00 +19°C° 0 mm 1 mps 751 mmHg 89%

    18 August, Saturday

    Time Temperature Precipitation Wind Pressure Humidity
    00:00 +19°C° 0 mm 1 mps 751 mmHg 90%
    01:00 +19°C° 0 mm 1 mps 751 mmHg 91%
    02:00 +18°C° 0 mm 1 mps 751 mmHg 92%
    03:00 +18°C° 0 mm 1 mps 751 mmHg 92%
    04:00 +18°C° 0 mm 1 mps 750 mmHg 93%
    05:00 +18°C° 0 mm 1 mps 750 mmHg 93%
    06:00 +19°C° 0 mm 1 mps 751 mmHg 89%
    07:00 +20°C° 0 mm 1 mps 751 mmHg 85%
    08:00 +22°C° 0 mm 1 mps 751 mmHg 81%
    09:00 +24°C° 0.1 mm 1 mps 751 mmHg 75%
    10:00 +23°C° 0.1 mm 0 mps 751 mmHg 70%
    11:00 +25°C° 0.1 mm 0 mps 751 mmHg 64%
    12:00 +25°C° 0.3 mm 0 mps 750 mmHg 61%
    13:00 +28°C° 0.3 mm 1 mps 750 mmHg 58%
    14:00 +28°C° 0.3 mm 1 mps 750 mmHg 55%
    15:00 +28°C° 0.1 mm 1 mps 750 mmHg 56%
    16:00 +28°C° 0.1 mm 1 mps 750 mmHg 57%
    17:00 +27°C° 0.1 mm 1 mps 750 mmHg 57%
    18:00 +26°C° 0.1 mm 1 mps 750 mmHg 64%
    19:00 +24°C° 0.1 mm 1 mps 750 mmHg 70%
    20:00 +22°C° 0.1 mm 1 mps 750 mmHg 76%
    21:00 +21°C° 0 mm 1 mps 750 mmHg 78%
    22:00 +21°C° 0 mm 1 mps 750 mmHg 80%
    23:00 +20°C° 0 mm 1 mps 750 mmHg 83%

    19 August, Sunday

    Time Temperature Precipitation Wind Pressure Humidity
    00:00 +20°C° 0 mm 1 mps 750 mmHg 84%
    01:00 +19°C° 0 mm 1 mps 750 mmHg 86%
    02:00 +19°C° 0 mm 1 mps 750 mmHg 87%
    03:00 +19°C° 0 mm 1 mps 750 mmHg 88%
    04:00 +18°C° 0 mm 1 mps 751 mmHg 88%
    05:00 +18°C° 0 mm 1 mps 751 mmHg 89%
    06:00 +20°C° 0 mm 1 mps 751 mmHg 85%
    07:00 +21°C° 0 mm 1 mps 751 mmHg 81%
    08:00 +21°C° 0 mm 2 mps 751 mmHg 77%
    09:00 +24°C° 0.5 mm 2 mps 751 mmHg 73%
    10:00 +25°C° 0.5 mm 2 mps 751 mmHg 70%
    11:00 +26°C° 0.5 mm 2 mps 751 mmHg 66%
    12:00 +26°C° 0.8 mm 3 mps 751 mmHg 66%
    13:00 +26°C° 0.8 mm 3 mps 751 mmHg 65%
    14:00 +26°C° 0.8 mm 3 mps 751 mmHg 64%
    15:00 +26°C° 0.2 mm 3 mps 751 mmHg 65%
    16:00 +26°C° 0.2 mm 3 mps 751 mmHg 66%
    17:00 +25°C° 0.2 mm 3 mps 751 mmHg 66%
    18:00 +22°C° 0 mm 3 mps 751 mmHg 71%
    19:00 +21°C° 0 mm 2 mps 751 mmHg 77%
    20:00 +19°C° 0 mm 2 mps 751 mmHg 82%
    21:00 +18°C° 0 mm 2 mps 751 mmHg 84%
    22:00 +18°C° 0 mm 2 mps 751 mmHg 86%
    23:00 +18°C° 0 mm 2 mps 752 mmHg 89%

    20 August, Monday

    Time Temperature Precipitation Wind Pressure Humidity
    00:00 +17°C° 0 mm 2 mps 752 mmHg 91%
    01:00 +17°C° 0 mm 2 mps 752 mmHg 93%
    02:00 +16°C° 0 mm 2 mps 752 mmHg 95%
    03:00 +16°C° 0 mm 2 mps 752 mmHg 96%
    04:00 +16°C° 0 mm 1 mps 752 mmHg 96%
    05:00 +15°C° 0 mm 1 mps 752 mmHg 97%
    06:00 +16°C° 0 mm 1 mps 752 mmHg 93%
    07:00 +18°C° 0 mm 1 mps 752 mmHg 89%
    08:00 +20°C° 0 mm 1 mps 752 mmHg 86%
    09:00 +19°C° 0 mm 2 mps 752 mmHg 80%
    10:00 +20°C° 0 mm 2 mps 752 mmHg 75%
    11:00 +21°C° 0 mm 2 mps 752 mmHg 69%
    12:00 +23°C° 0 mm 2 mps 752 mmHg 66%
    13:00 +24°C° 0 mm 3 mps 752 mmHg 63%
    14:00 +24°C° 0 mm 3 mps 752 mmHg 60%
    15:00 +24°C° 0 mm 2 mps 751 mmHg 60%
    16:00 +24°C° 0 mm 2 mps 751 mmHg 60%
    17:00 +24°C° 0 mm 2 mps 751 mmHg 60%
    18:00 +23°C° 0 mm 1 mps 751 mmHg 67%
    19:00 +21°C° 0 mm 1 mps 751 mmHg 73%
    20:00 +17°C° 0 mm 0 mps 751 mmHg 79%
    21:00 +19°C° 0 mm 1 mps 751 mmHg 80%
    22:00 +18°C° 0 mm 1 mps 751 mmHg 82%
    23:00 +18°C° 0 mm 1 mps 750 mmHg 83%
    Show more